| time (UTC) | temp C | wind direction | speed KPH | gust KPH | rain 1hr cm | rain 24hr cm | rain mn cm | humidity % | barometer mb |
| 20260508101505 | 11 | 287 | 12.9 | 16.1 | 0.00 | 0.00 | 0.00 | 69 | 1025.0 |
| 20260508094610 | 11 | 289 | 12.9 | 17.7 | 0.00 | 0.00 | 0.00 | 67 | 1025.0 |
| 20260508093103 | 11 | 291 | 12.9 | 16.1 | 0.00 | 0.00 | 0.00 | 63 | 1024.9 |
| 20260508091614 | 12 | 291 | 11.3 | 14.5 | 0.00 | 0.00 | 0.00 | 60 | 1024.8 |
| 20260508090110 | 12 | 280 | 6.4 | 11.3 | 0.00 | 0.00 | 0.00 | 61 | 1024.6 |
| 20260508084510 | 11 | 280 | 4.8 | 11.3 | 0.00 | 0.00 | 0.00 | 63 | 1024.6 |
| 20260508083103 | 11 | 279 | 8.0 | 12.9 | 0.00 | 0.00 | 0.00 | 65 | 1024.5 |
| 20260508081602 | 11 | 279 | 8.0 | 12.9 | 0.00 | 0.00 | 0.00 | 65 | 1024.4 |
| 20260508080201 | 11 | 280 | 8.0 | 12.9 | 0.00 | 0.00 | 0.00 | 66 | 1024.3 |
| 20260508074500 | 10 | 279 | 9.7 | 16.1 | 0.00 | 0.00 | 0.00 | 69 | 1024.2 |
| 20260508073100 | 11 | 276 | 14.5 | 17.7 | 0.00 | 0.00 | 0.00 | 68 | 1024.1 |
| 20260508071501 | 11 | 276 | 12.9 | 17.7 | 0.00 | 0.00 | 0.00 | 68 | 1024.1 |
| 20260508070010 | 11 | 276 | 6.4 | 14.5 | 0.00 | 0.00 | 0.00 | 68 | 1023.8 |
| 20260508063102 | 12 | 276 | 4.8 | 9.7 | 0.00 | 0.00 | 0.00 | 63 | 1023.3 |
| 20260508061613 | 12 | 276 | 1.6 | 9.7 | 0.00 | 0.00 | 0.00 | 62 | 1023.1 |
| 20260508060106 | 12 | 276 | 3.2 | 4.8 | 0.00 | 0.00 | 0.00 | 64 | 1023.0 |
| 20260508054511 | 11 | 276 | 3.2 | 9.7 | 0.00 | 0.00 | 0.00 | 66 | 1022.7 |
| 20260508053110 | 11 | 276 | 6.4 | 9.7 | 0.00 | 0.00 | 0.00 | 68 | 1022.5 |
| 20260508051601 | 10 | 276 | 8.0 | 11.3 | 0.00 | 0.00 | 0.00 | 71 | 1022.3 |
| 20260508050110 | 8 | 276 | 3.2 | 6.4 | 0.00 | 0.00 | 0.00 | 75 | 1022.2 |
| 20260508044502 | 8 | 276 | 1.6 | 6.4 | 0.00 | 0.00 | 0.00 | 78 | 1022.1 |
| 20260508043113 | 7 | 276 | 1.6 | 8.0 | 0.00 | 0.00 | 0.00 | 81 | 1021.9 |
| 20260508041601 | 6 | 276 | 0.0 | 4.8 | 0.00 | 0.00 | 0.00 | 82 | 1021.7 |
| 20260508040105 | 6 | 276 | 1.6 | 6.4 | 0.00 | 0.00 | 0.00 | 87 | 1021.5 |
| 20260508034511 | 5 | 276 | 3.2 | 6.4 | 0.00 | 0.00 | 0.00 | 89 | 1021.3 |
| 20260508033110 | 5 | 276 | 4.8 | 11.3 | 0.00 | 0.00 | 0.00 | 90 | 1021.2 |
| 20260508031600 | 4 | 276 | 3.2 | 9.7 | 0.00 | 0.00 | 0.00 | 91 | 1021.0 |
| 20260508030105 | 3 | 276 | 4.8 | 11.3 | 0.00 | 0.00 | 0.00 | 91 | 1020.9 |
| 20260508024601 | 3 | 276 | 8.0 | 12.9 | 0.00 | 0.00 | 0.00 | 91 | 1020.8 |
| 20260508023014 | 2 | 276 | 4.8 | 11.3 | 0.00 | 0.00 | 0.00 | 91 | 1020.6 |
| 20260508021501 | 2 | 276 | 4.8 | 11.3 | 0.00 | 0.00 | 0.00 | 91 | 1020.6 |
| 20260508020001 | 2 | 276 | 4.8 | 11.3 | 0.00 | 0.00 | 0.00 | 91 | 1020.4 |
| 20260508014601 | 2 | 276 | 4.8 | 11.3 | 0.00 | 0.00 | 0.00 | 91 | 1020.3 |
| 20260508013000 | 2 | 276 | 4.8 | 12.9 | 0.00 | 0.00 | 0.00 | 91 | 1020.1 |
| 20260508011608 | 2 | 276 | 6.4 | 17.7 | 0.00 | 0.00 | 0.00 | 91 | 1020.0 |
| 20260508010007 | 2 | 273 | 4.8 | 11.3 | 0.00 | 0.00 | 0.00 | 91 | 1019.9 |
| 20260508004501 | 2 | 273 | 6.4 | 11.3 | 0.00 | 0.00 | 0.00 | 91 | 1019.7 |
| 20260508003001 | 2 | 274 | 6.4 | 14.5 | 0.00 | 0.00 | 0.00 | 91 | 1019.6 |
| 20260508001501 | 2 | 273 | 6.4 | 12.9 | 0.00 | 0.00 | 0.00 | 91 | 1019.5 |
| 20260508000100 | 2 | 273 | 8.0 | 12.9 | 0.00 | 0.00 | 0.00 | 91 | 1019.4 |
| 20260507234518 | 2 | 268 | 4.8 | 11.3 | 0.00 | 0.00 | 0.00 | 91 | 1019.2 |
| 20260507233101 | 2 | 268 | 4.8 | 12.9 | 0.00 | 0.00 | 0.00 | 91 | 1019.0 |
| 20260507231502 | 2 | 268 | 4.8 | 11.3 | 0.00 | 0.00 | 0.00 | 91 | 1019.0 |
| 20260507224505 | 2 | 264 | 11.3 | 14.5 | 0.00 | 0.00 | 0.00 | 91 | 1018.8 |
| 20260507223011 | 3 | 263 | 4.8 | 11.3 | 0.00 | 0.00 | 0.00 | 91 | 1018.6 |
| 20260507221501 | 3 | 264 | 9.7 | 12.9 | 0.00 | 0.00 | 0.00 | 91 | 1018.6 |
| 20260507220011 | 3 | 261 | 11.3 | 16.1 | 0.00 | 0.00 | 0.00 | 91 | 1018.5 |
| 20260507214511 | 3 | 254 | 9.7 | 14.5 | 0.00 | 0.00 | 0.00 | 90 | 1018.4 |
| 20260507213110 | 3 | 255 | 9.7 | 14.5 | 0.00 | 0.00 | 0.00 | 90 | 1018.2 |
| 20260507211505 | 3 | 256 | 14.5 | 17.7 | 0.00 | 0.00 | 0.00 | 91 | 1018.0 |
| 20260507210002 | 3 | 260 | 12.9 | 16.1 | 0.00 | 0.00 | 0.00 | 90 | 1017.9 |
| 20260507204511 | 3 | 260 | 11.3 | 14.5 | 0.00 | 0.00 | 0.00 | 90 | 1017.8 |
| 20260507203108 | 3 | 260 | 11.3 | 14.5 | 0.00 | 0.00 | 0.00 | 90 | 1017.4 |
| 20260507201501 | 3 | 260 | 12.9 | 16.1 | 0.00 | 0.00 | 0.00 | 90 | 1017.3 |
| 20260507200004 | 3 | 268 | 12.9 | 14.5 | 0.00 | 0.00 | 0.00 | 90 | 1017.3 |
| 20260507194513 | 3 | 268 | 6.4 | 11.3 | 0.00 | 0.00 | 0.00 | 90 | 1017.2 |
| 20260507193103 | 3 | 268 | 9.7 | 14.5 | 0.00 | 0.00 | 0.00 | 90 | 1017.0 |
| 20260507191601 | 3 | 268 | 6.4 | 9.7 | 0.00 | 0.00 | 0.00 | 89 | 1016.8 |
| 20260507190002 | 3 | 268 | 8.0 | 12.9 | 0.00 | 0.00 | 0.00 | 89 | 1016.8 |
| 20260507184502 | 3 | 268 | 11.3 | 17.7 | 0.00 | 0.00 | 0.00 | 89 | 1016.7 |
| 20260507183051 | 3 | 268 | 14.5 | 19.3 | 0.00 | 0.00 | 0.00 | 89 | 1016.6 |
| 20260507181602 | 3 | 269 | 16.1 | 19.3 | 0.00 | 0.00 | 0.00 | 89 | 1016.6 |
| 20260507174501 | 4 | 270 | 19.3 | 24.1 | 0.00 | 0.00 | 0.00 | 88 | 1016.4 |
| 20260507173108 | 4 | 272 | 20.9 | 24.1 | 0.00 | 0.00 | 0.00 | 87 | 1016.2 |
| 20260507171503 | 4 | 283 | 16.1 | 20.9 | 0.00 | 0.00 | 0.00 | 86 | 1016.2 |
| 20260507170013 | 4 | 287 | 16.1 | 20.9 | 0.00 | 0.00 | 0.00 | 85 | 1016.2 |
| 20260507164502 | 5 | 294 | 14.5 | 22.5 | 0.00 | 0.00 | 0.00 | 84 | 1016.0 |
| 20260507163011 | 5 | 292 | 12.9 | 20.9 | 0.00 | 0.00 | 0.00 | 83 | 1015.8 |
| 20260507161613 | 6 | 293 | 11.3 | 19.3 | 0.00 | 0.00 | 0.00 | 81 | 1015.5 |
| 20260507160003 | 6 | 287 | 16.1 | 20.9 | 0.00 | 0.00 | 0.00 | 78 | 1015.4 |
| 20260507154503 | 6 | 328 | 6.4 | 9.7 | 0.00 | 0.00 | 0.00 | 74 | 1015.4 |
| 20260507153003 | 6 | 328 | 4.8 | 8.0 | 0.00 | 0.00 | 0.00 | 74 | 1015.2 |
| 20260507151601 | 6 | 328 | 6.4 | 9.7 | 0.00 | 0.00 | 0.00 | 77 | 1015.0 |
| 20260507150005 | 5 | 328 | 4.8 | 14.5 | 0.00 | 0.00 | 0.00 | 82 | 1014.9 |
| 20260507144601 | 5 | 16 | 6.4 | 12.9 | 0.00 | 0.00 | 0.00 | 81 | 1015.0 |
| 20260507143002 | 5 | 16 | 6.4 | 16.1 | 0.00 | 0.00 | 0.00 | 81 | 1015.0 |
| 20260507141511 | 5 | 33 | 6.4 | 16.1 | 0.00 | 0.00 | 0.00 | 83 | 1014.9 |
| 20260507140001 | 5 | 35 | 9.7 | 16.1 | 0.00 | 0.00 | 0.00 | 83 | 1014.6 |
| 20260507134527 | 5 | 32 | 9.7 | 16.1 | 0.00 | 0.00 | 0.00 | 83 | 1014.5 |
| 20260507133012 | 5 | 25 | 8.0 | 17.7 | 0.00 | 0.00 | 0.00 | 82 | 1014.4 |
| 20260507131627 | 5 | 40 | 11.3 | 20.9 | 0.00 | 0.00 | 0.00 | 82 | 1014.4 |
| 20260507130003 | 5 | 35 | 14.5 | 20.9 | 0.00 | 0.00 | 0.00 | 83 | 1014.4 |
| 20260507124602 | 5 | 46 | 17.7 | 22.5 | 0.00 | 0.00 | 0.00 | 85 | 1014.5 |
| 20260507123019 | 5 | 4 | 3.2 | 16.1 | 0.00 | 0.00 | 0.00 | 82 | 1014.7 |
| 20260507121502 | 5 | 8 | 6.4 | 19.3 | 0.00 | 0.00 | 0.00 | 82 | 1014.5 |
| 20260507120104 | 4 | 19 | 9.7 | 22.5 | 0.00 | 0.00 | 0.00 | 83 | 1014.4 |
| 20260507114521 | 4 | 359 | 9.7 | 20.9 | 0.00 | 0.00 | 0.00 | 84 | 1014.5 |
| 20260507113012 | 4 | 354 | 8.0 | 19.3 | 0.00 | 0.00 | 0.00 | 84 | 1014.5 |
| 20260507111509 | 4 | 337 | 11.3 | 19.3 | 0.00 | 0.00 | 0.00 | 82 | 1014.7 |
| 20260507110124 | 5 | 347 | 6.4 | 12.9 | 0.00 | 0.00 | 0.00 | 80 | 1014.7 |
| 20260507104603 | 6 | 10 | 8.0 | 16.1 | 0.00 | 0.00 | 0.00 | 76 | 1014.7 |
| 20260507103102 | 6 | 324 | 4.8 | 14.5 | 0.00 | 0.00 | 0.00 | 80 | 1014.7 |